Flag for United Kingdom Weather past 2 weeks in Watford, England, United Kingdom

Now
48 °F

Clear.


Feels Like: 45 °F
Forecast: 51 / 67 °F
Wind: 7 mph from West

Location: Northolt

Current Time: Jul 29, 2015 at 6:02:48 AM

Latest Report: Jul 29, 2015 at 4:50 AM


Visibility: N/A

Pressure: 29.77 "Hg

Humidity: 94%

Dew point: 46 °F

Location of WatfordLocation

Historic Weather in Watford — Graph

°F

Watford temperature yesterday

Maximum temperature yesterday: 66 °F (at 2:50 PM)
Minimum temperature yesterday: 55 °F (at 5:50 AM)
Average temperature yesterday: 60 °F

Past Weeks' High & Low Weather Summary

 TemperatureHumidityPressure
High77 °F (Jul 16, 3:50 PM)100% (Jul 14, 8:50 PM)30.09 "Hg (Jul 14, 8:50 PM)
Low50 °F (Jul 23, 3:50 AM)19% (Jul 19, 6:50 PM)29.42 "Hg (Jul 26, 7:50 PM)
Average63 °F72%29.87 "Hg
* Reported Jul 14 3:50 AM — Jul 29 3:50 AM, Watford, Weather by CustomWeather, © 2015

Note: Actual official high and low records may vary slightly from our data, if they occured in-between our weather recording intervals... More about our weather records

Advertising

Watford weather history for previous 24 hours

 ConditionsComfort  
Time TempWeatherWind HumidityBarometerVisibility
3:50 AM
Wed, Jul 29
50 °FClear.6 mph88%29.77 "HgN/A
2:50 AM50 °FClear.7 mph88%29.77 "HgN/A
1:50 AM52 °FPassing clouds.8 mph82%29.77 "HgN/A
12:50 AM54 °FPassing clouds.10 mph77%29.77 "HgN/A
11:50 PM
Tue, Jul 28
55 °FPassing clouds.13 mph72%29.77 "HgN/A
10:50 PM57 °FPassing clouds.14 mph67%29.77 "HgN/A
9:50 PM59 °FPartly sunny.10 mph63%29.77 "HgN/A
8:50 PM59 °FScattered clouds.13 mph59%29.74 "HgN/A
7:50 PM63 °FScattered showers. Scattered clouds.9 mph56%29.74 "HgN/A
6:50 PM63 °FScattered clouds.14 mph56%29.74 "HgN/A
5:50 PM66 °FScattered clouds.15 mph46%29.71 "HgN/A
4:50 PM66 °FPartly sunny.16 mph46%29.71 "HgN/A
3:50 PM66 °FPartly sunny.21 mph46%29.71 "HgN/A
2:50 PM66 °FPartly sunny.18 mph46%29.71 "HgN/A
1:50 PM64 °FPartly sunny.20 mph49%29.71 "HgN/A
12:50 PM64 °FPartly sunny.20 mph52%29.71 "HgN/A
11:50 AM63 °FPartly sunny.16 mph56%29.68 "HgN/A
10:50 AM61 °FPartly sunny.18 mph59%29.68 "HgN/A
9:50 AM59 °FPartly sunny.18 mph68%29.68 "HgN/A
8:50 AM61 °FScattered clouds.17 mph63%29.68 "HgN/A
7:50 AM57 °FPartly sunny.14 mph77%29.68 "HgN/A
6:50 AM55 °FScattered clouds.13 mph82%29.65 "HgN/A
Weather by CustomWeather, © 2015

See weather overviewHow to use our weather pages